This demonstration page uses our WeatherBlox Daily Observations layout. Learn more.

Left ArrowRight Arrow

41.12389, -100.76542

Hourly Observations for March 26, 2021

Temp ( °F °C ) Dew Point ( °F °C ) Humidity (%) Winds ( mph kmh ) Pressure ( in mb ) Visibility ( mi km ) Precip ( " mm )
12:53 am 00:53 Mostly Cloudy 42 5.6 33 0.6 71 71 SE 9 15 29.78 1008 10 16 0.00 0.00
1:53 am 01:53 Clear 40 4.4 33 0.6 77 77 SSE 9 15 29.78 1008 10 16 0.00 0.00
2:53 am 02:53 Clear 39 3.9 33 0.6 79 79 SE 7 11 29.80 1009 10 16 0.00 0.00
3:53 am 03:53 Clear 37 2.8 32 0 82 82 ESE 6 9 29.79 1009 10 16 0.00 0.00
4:53 am 04:53 Mostly Clear 40 4.4 33 0.6 77 77 SSE 9 15 29.79 1009 10 16 0.00 0.00
5:53 am 05:53 Partly Cloudy 39 3.9 33 0.6 79 79 Calm 29.79 1009 10 16 0.00 0.00
6:53 am 06:53 Mostly Clear 38 3.3 32 0 79 79 Calm 29.81 1009 10 16 0.00 0.00
7:53 am 07:53 Mostly Sunny 38 3.3 33 0.6 83 83 SE 5 7 29.83 1010 10 16 0.00 0.00
8:53 am 08:53 Sunny 39 3.9 34 1.1 82 82 SE 6 9 29.85 1011 10 16 0.00 0.00
9:53 am 09:53 Sunny 46 7.8 35 1.7 66 66 SSE 10 17 29.85 1011 10 16 0.00 0.00
10:53 am 10:53 Sunny 49 9.4 36 2.2 61 61 SE 9 15 29.85 1011 10 16 0.00 0.00
11:53 am 11:53 Cloudy 49 9.4 36 2.2 61 61 SSE 9 15 29.84 1011 10 16 0.00 0.00
12:53 pm 12:53 Mostly Cloudy 52 11.1 37 2.8 57 57 SE 9 15 29.83 1010 10 16 0.00 0.00
1:53 pm 13:53 Cloudy with Light Rain 50 10 38 3.3 63 63 ESE 10 17 29.83 1010 10 16 0.00 0.00
2:53 pm 14:53 Cloudy with Light Rain 47 8.3 41 5 80 80 E 7 11 29.83 1010 8 13 0.01 0.25
3:16 pm 15:16 Cloudy with Light Rain 48 8.9 42 5.6 80 80 ENE 7 11 29.81 1009 10 16 0.01 0.25
3:39 pm 15:39 Cloudy with Light Rain 48 8.9 41 5 77 77 E 10 17 29.81 1009 10 16 0.02 0.51
3:53 pm 15:53 Cloudy 48 8.9 42 5.6 80 80 E 10 17 29.82 1010 10 16 0.02 0.51
4:53 pm 16:53 Cloudy 48 8.9 42 5.6 80 80 ENE 9 15 29.81 1010 10 16 0.00 0.00
5:53 pm 17:53 Cloudy with Light Rain 47 8.3 41 5 80 80 NE 9 15 29.82 1010 10 16 0.00 0.00
6:53 pm 18:53 Cloudy 46 7.8 42 5.6 86 86 NNE 8 13 29.84 1010 10 16 0.00 0.00
7:53 pm 19:53 Cloudy 45 7.2 41 5 86 86 NNE 7 11 29.86 1011 10 16 0.00 0.00
8:53 pm 20:53 Cloudy 44 6.7 40 4.4 85 85 NNE 8 13 29.87 1012 10 16 0.00 0.00
9:53 pm 21:53 Cloudy 44 6.7 41 5 89 89 NNE 6 9 29.88 1012 10 16 0.00 0.00
10:09 pm 22:09 Cloudy 44 6.7 41 5 89 89 NNE 7 11 29.91 1013 10 16 0.00 0.00
10:53 pm 22:53 Cloudy 44 6.7 41 5 89 89 NE 5 7 29.90 1013 10 16 0.00 0.00
11:15 pm 23:15 Cloudy 44 6.7 41 5 89 89 Calm 29.92 1013 10 16 0.00 0.00
11:18 pm 23:18 Cloudy 44 6.7 41 5 89 89 Calm 29.92 1013 10 16 0.00 0.00
11:27 pm 23:27 Cloudy 44 6.7 41 5 89 89 WNW 3 6 29.92 1013 10 16 0.00 0.00
11:53 pm 23:53 Cloudy 44 6.7 41 5 89 89 WNW 7 11 29.91 1013 10 16 0.00 0.00

Powered by AerisWeather